Flag for Japan Weather past 2 weeks in Nagano, Japan

Now
75 °F

Passing clouds.


Feels Like: 77 °F
Forecast: 69 / 95 °F
Wind: 3 mph from West

Location: Nagano

Current Time: Jul 31, 2014 at 4:26:55 AM

Latest Report: Jul 31, 2014 at 3:00 AM


Visibility: 6 mi

Pressure: 29.94 "Hg

Humidity: 72%

Dew point: 66 °F

Location of NaganoLocation

Historic Weather in Nagano — Graph

°F

Nagano temperature yesterday

Maximum temperature yesterday: 94 °F (at 2:00 PM)
Minimum temperature yesterday: 70 °F (at 5:00 AM)
Average temperature yesterday: 81 °F

Past Weeks' High & Low Weather Summary

 TemperatureHumidityPressure
High99 °F (Jul 26, 4:00 PM)97% (Jul 18, 1:00 AM)30.03 "Hg (Jul 18, 1:00 AM)
Low64 °F (Jul 29, 5:00 AM)29% (Jul 30, 3:00 PM)29.62 "Hg (Jul 23, 1:00 PM)
Average78 °F72%29.82 "Hg
* Reported Jul 16 2:00 AM — Jul 31 2:00 AM, Nagano, Weather by CustomWeather, © 2014

Note: Actual official high and low records may vary slightly from our data, if they occured in-between our weather recording intervals... More about our weather records

Advertising

Nagano weather history for previous 24 hours

 ConditionsComfort  
Time TempWeatherWind HumidityBarometerVisibility
2:00 AM
Jul 31
77 °FMild.6 mph68%29.93 "HgN/A
1:00 AM78 °FWarm.3 mph67%29.93 "HgN/A
12:00 AM78 °FWarm.6 mph68%29.93 "HgN/A
11:00 PM
Jul 30
78 °FWarm.5 mph69%29.94 "HgN/A
10:00 PM79 °FWarm.2 mph68%29.94 "HgN/A
9:00 PM80 °FOvercast.3 mph64%29.93 "Hg6 mi
8:00 PM82 °FWarm.2 mph59%29.91 "HgN/A
7:00 PM83 °FWarm.3 mph57%29.88 "HgN/A
6:00 PM86 °FWarm.2 mph49%29.87 "HgN/A
5:00 PM86 °FWarm.12 mph51%29.87 "HgN/A
4:00 PM92 °FHot.9 mph41%29.84 "HgN/A
3:00 PM93 °FScattered clouds.3 mph29%29.85 "Hg12 mi
2:00 PM94 °FExtremely hot.7 mph32%29.87 "HgN/A
1:00 PM90 °FHot.6 mph36%29.89 "HgN/A
12:00 PM90 °FHot.3 mph37%29.91 "HgN/A
11:00 AM87 °FWarm.2 mph43%29.94 "HgN/A
10:00 AM84 °FWarm.3 mph46%29.97 "HgN/A
9:00 AM80 °FPassing clouds.3 mph58%29.99 "Hg9 mi
8:00 AM76 °FMild.2 mph63%30.01 "HgN/A
7:00 AM73 °FMild.2 mph71%30.03 "HgN/A
6:00 AM70 °FMild.2 mph76%30.03 "HgN/A
5:00 AM70 °FMild.1 mph76%30.02 "HgN/A
4:00 AM72 °FMild.6 mph70%29.99 "HgN/A
Weather by CustomWeather, © 2014

See weather overviewHow to use our weather pages